Weather History for Mitchell, SD

Change the Weather History Date:

Wednesday, June 12, 2013

  Actual Average Record
Temperature  
Mean Temperature 65 °F 68 °F  
Max Temperature 72 °F 80 °F 102 °F (1956)
Min Temperature 57 °F 57 °F 42 °F (1927)
Degree Days  
Heating Degree Days 0 1  
Month to date heating degree days 50 24  
Since 1 June heating degree days 50 24  
Since 1 July heating degree days 7651 7234  
Cooling Degree Days 0 5  
Month to date cooling degree days 13 41  
Year to date cooling degree days 70 81  
Since 1 June cooling degree days 13 41  
Growing Degree Days 16 (Base 50)    
Moisture  
Dew Point 55 °F    
Average Humidity 67    
Maximum Humidity 80    
Minimum Humidity 53    
Precipitation  
Precipitation T in 0.17 in 2.03 in (2010)
Month to date precipitation 1.32 1.84  
Year to date precipitation 11.27 8.57  
Snow  
Snow 0.00 in - 0.00 in ()
Month to date snowfall 0.0  
Since 1 June snowfall 0.0  
Since 1 July snowfall 54.5  
Snow Depth 0.00 in    
Sea Level Pressure  
Sea Level Pressure 29.91 in    
Wind  
Wind Speed 14 mph (North)    
Max Wind Speed 35 mph    
Max Gust Speed 43 mph    
Visibility 10 miles    
Events      
T = Trace of Precipitation, MM = Missing Value Source: NWS Daily Summary

Daily Weather History Graph

Daily Weather History Graph

Search for Another Location

Airport:

Trip Planner

Search our weather history database for the weather conditions in past years. The results will help you decide how hot, cold, wet, or windy it might be!

Date:

Astronomy

Jun. 12, 2013 Rise Set
Actual Time 5:49 AM CDT 9:14 PM CDT
Civil Twilight 5:13 AM CDT 9:50 PM CDT
Nautical Twilight 4:26 AM CDT 10:37 PM CDT
Astronomical Twilight 3:27 AM CDT 11:37 PM CDT
Moon 9:36 AM CDT (6/12) 11:44 PM CDT (6/12)
Length of Visible Light 16h 37m
Length of Day
15h 25m
Waxing Crescent, 14% of the Moon is Illuminated
Jun 12
Waxing Crescent
Jun 16
First Quarter
Jun 23
Full
Jun 29
Last Quarter
Jul 8
New

Hourly Weather History & Observations

Time (CDT) Temp. Dew Point Humidity Pressure Visibility Wind Dir Wind Speed Gust Speed Precip Events Conditions
12:53 AM 69.1 °F 57.9 °F 68% 29.77 in 10.0 mi ENE 9.2 mph - N/A   Overcast
1:53 AM 69.1 °F 57.9 °F 68% 29.75 in 10.0 mi ESE 12.7 mph - N/A   Partly Cloudy
2:53 AM 69.1 °F 60.1 °F 73% 29.68 in 10.0 mi ENE 19.6 mph 24.2 mph N/A   Clear
3:53 AM 68.0 °F 60.1 °F 76% 29.78 in 10.0 mi WNW 20.7 mph 29.9 mph N/A   Clear
3:59 AM 68.0 °F 57.2 °F 68% 29.80 in 10.0 mi NNW 31.1 mph 42.6 mph N/A   Partly Cloudy
4:17 AM 68.0 °F 53.6 °F 60% 29.84 in 10.0 mi NNW 24.2 mph 33.4 mph N/A   Mostly Cloudy
4:28 AM 69.8 °F 53.6 °F 56% 29.84 in 10.0 mi North 24.2 mph 32.2 mph N/A   Overcast
4:53 AM 68.0 °F 54.0 °F 61% 29.78 in 10.0 mi North 19.6 mph 33.4 mph N/A   Mostly Cloudy
5:53 AM 64.9 °F 53.1 °F 65% 29.76 in 10.0 mi East 19.6 mph 25.3 mph N/A   Mostly Cloudy
6:53 AM 66.0 °F 52.0 °F 60% 29.77 in 10.0 mi ENE 17.3 mph 25.3 mph N/A   Partly Cloudy
7:53 AM 69.1 °F 54.0 °F 58% 29.81 in 10.0 mi NNE 5.8 mph - N/A   Scattered Clouds
8:53 AM 68.0 °F 55.9 °F 65% 29.83 in 10.0 mi WNW 9.2 mph - N/A   Mostly Cloudy
9:53 AM 70.0 °F 55.0 °F 59% 29.86 in 10.0 mi NW 15.0 mph - N/A   Unknown
10:53 AM 70.0 °F 57.0 °F 63% 29.89 in 10.0 mi NNW 21.9 mph 26.5 mph N/A   Mostly Cloudy
11:53 AM 69.1 °F 55.0 °F 61% 29.91 in 10.0 mi NW 20.7 mph - N/A   Overcast
12:53 PM 71.1 °F 54.0 °F 55% 29.93 in 10.0 mi NNW 19.6 mph 27.6 mph N/A   Clear
1:27 PM 68.0 °F 53.6 °F 60% 29.95 in 10.0 mi NNW 20.7 mph 26.5 mph N/A   Mostly Cloudy
1:53 PM 66.9 °F 54.0 °F 63% 29.95 in 10.0 mi North 16.1 mph - N/A   Overcast
2:10 PM 68.0 °F 55.4 °F 64% 29.96 in 10.0 mi North 16.1 mph - N/A   Overcast
2:53 PM 64.0 °F 54.0 °F 70% 29.97 in 10.0 mi NNW 17.3 mph - N/A   Overcast
3:03 PM 62.6 °F 53.6 °F 72% 29.99 in 10.0 mi North 13.8 mph 23.0 mph N/A   Overcast
3:53 PM 62.1 °F 54.0 °F 75% 29.99 in 10.0 mi North 17.3 mph 23.0 mph N/A   Overcast
4:00 PM 62.6 °F 53.6 °F 72% 30.01 in 10.0 mi North 15.0 mph - N/A   Overcast
4:53 PM 63.0 °F 53.1 °F 70% 30.01 in 10.0 mi North 4.6 mph - N/A   Overcast
5:53 PM 66.9 °F 55.0 °F 66% 30.01 in 10.0 mi NW 15.0 mph 20.7 mph N/A   Mostly Cloudy
6:05 PM 68.0 °F 55.4 °F 64% 30.02 in 10.0 mi NW 11.5 mph - N/A   Mostly Cloudy
6:20 PM 69.8 °F 55.4 °F 60% 30.01 in 10.0 mi NW 11.5 mph - N/A   Scattered Clouds
6:53 PM 71.1 °F 55.9 °F 59% 30.00 in 10.0 mi NNW 13.8 mph - N/A   Scattered Clouds
7:53 PM 71.1 °F 55.9 °F 59% 30.02 in 10.0 mi North 13.8 mph - N/A   Clear
8:53 PM 68.0 °F 54.0 °F 61% 30.06 in 10.0 mi North - - N/A   Clear
9:53 PM 63.0 °F 53.1 °F 70% 30.07 in 10.0 mi NNW 8.1 mph - N/A   Unknown
10:53 PM 60.1 °F 53.1 °F 78% 30.09 in 10.0 mi North 8.1 mph - N/A   Clear
11:53 PM 59.0 °F 53.1 °F 81% 30.08 in 10.0 mi NNW 3.5 mph - N/A   Clear